www.pogodaiklimat.ru

Погода и климат >> Архив погоды >> Россия >> Калмыкия >> Комсомольский


ПОГОДА в Комсомольском

  • Прогноз погоды в Комсомольском
  • Монитор погоды в Комсомольском

АРХИВ ПОГОДЫ в Комсомольском

Время (UTC), дата Ветер
(напр.,м/с)
 
Видим.   Явления Облачность Т
(С)
Тd
(С)
f
(%)
Тe
(С)
Тes
(С)
Комфортность P
(гПа)
Po
(гПа)
Тmin
(С)
Tmax
(С)
R
(мм)
R24
(мм)
S
(см)
12 18.05 В 5-11
{12}
20 км 1/1 1000 м
[Cu hum]
+28.5 +13.3 39 +30 +35 жарко 1010.1 1010.5
15 18.05 ЮВ 5
{11}
20 км 3/0
[Ci fib]
+24.8 +14.2 52 +27 +28 жарко 1010.0 1010.4 +30.1
18 18.05 В 3 20 км 1/0
[Ac trans]
+20.2 +16.2 78 +23 +23 комфорт 1011.1 1011.4
21 18.05 В 3 20 км 1/0
[Ac trans]
+17.5 +14.5 83 +18 +18 1010.1 1010.5
00 19.05 В 2 20 км 3/0
[Ac trans]
+15.7 +13.1 85 +16 +16 1009.2 1009.6
03 19.05 В 3 20 км 6/0
[Ac trans]
+17.4 +12.3 72 +17 +18 1009.6 1010.0 +14.4
06 19.05 В 4 20 км 6/0
[Ac und Ci fib]
+23.8 +12.1 48 +26 +30 жарко 1009.9 1010.2
09 19.05 В 3 20 км 9/9 1000 м
[Cu med, cong Ac und Ci]
+27.2 +8.7 31 +27 +29 жарко 1009.5 1009.9
12 19.05 СВ 3 20 км 9/9 600 м
[Sc Ac und]
+27.9 +8.7 30 +28 +29 жарко 1009.5 1009.8
15 19.05 ЮВ 2 20 км 9/9 300 м
[Cb cap Ac und]
+25.7 +13.2 46 +28 +28 жарко 1010.2 1010.5 +29.1
18 19.05 Ю 2 20 км {ливн. осадки} 5/5 600 м
[Sc]
+21.6 +14.4 64 +25 +25 комфорт 1012.0 1012.4
21 19.05 штиль 0 20 км 8/8 600 м
[Sc Ac und]
+18.7 +13.1 70 +19 +19 1011.9 1012.2
00 20.05 С 1 20 км 10/10 540 м
[Sc]
+17.9 +13.3 74 +19 +19 1012.6 1013.0
03 20.05 СВ 1 20 км 10/10 600 м
[Sc Ac und]
+17.8 +13.9 78 +19 +19 1013.2 1013.6 +16.4
06 20.05 СВ 2 20 км 10/10 600 м
[Sc]
+23.4 +7.3 36 +24 +24 комфорт 1014.5 1014.8
09 20.05 СВ 3 20 км 8/0
[Ac und Ci]
+26.8 +4.0 23 +26 +32 жарко 1015.0 1015.4
12 20.05 СВ 2 20 км 3/3 1000 м
[Cu med, cong Ac und]
+28.7 +1.1 17 +26 +34 жарко 1014.9 1015.3
15 20.05 СВ 4 20 км 3/0
[Ac und]
+26.1 +1.7 20 +25 +25 комфорт 1015.6 1015.9 +28.7
18 20.05 СВ 3 20 км 3/0
[Ac und]
+19.0 +1.3 31 +19 +19 1017.9 1018.3
21 20.05 СВ 3 20 км ясно +15.2 -1.2 32 +15 +15 1018.9 1019.2
00 21.05 В 3 20 км 6/0
[Ac und]
+13.6 +0.5 41 +13 +13 1019.9 1020.3
03 21.05 В 3 20 км ясно +15.4 +2.2 41 +15 +16 1020.6 1021.0 +12.9
06 21.05 В 4 20 км 6/0
[Ac trans]
+20.7 -1.2 23 +21 +26 комфорт 1021.5 1021.9
09 21.05 В 3 20 км 3/0
[Ac trans]
+23.3 -0.4 21 +22 +35 комфорт 1021.3 1021.7
12 21.05 ЮВ 3 20 км ясно +25.2 -0.1 19 +24 +33 комфорт 1020.4 1020.8
15 21.05 ЮВ 5
{11}
20 км 3/0
[Ci fib]
+21.6 +3.9 31 +22 +22 комфорт 1020.5 1020.9 +25.2
18 21.05 ЮВ 3 20 км 4/0
[Ac trans Ci fib]
+16.4 +5.9 50 +16 +16 1021.8 1022.1
21 21.05 ЮВ 2 20 км 4/0
[Ci fib]
+13.2 +6.9 66 +13 +13 1021.3 1021.7
00 22.05 ЮВ 2 20 км 6/0
[Ac trans Ci fib]
+11.8 +5.7 66 +11 +11 1020.3 1020.7
03 22.05 В 3 20 км 6/0
[Ci fib]
+12.9 +6.2 64 +12 +13 1019.7 1020.1 +10.8
06 22.05 ЮВ 6-12
{12}
10 км пыльный позёмок 4/0
[Ci fib]
+20.4 +2.7 31 +21 +25 комфорт 1018.5 1018.9
09 22.05 ЮВ 6-12
{13}
10 км пыльный позёмок 3/0
[Ci fib]
+23.0 +4.1 29 +23 +30 комфорт 1016.4 1016.7
12 22.05 ЮВ 6-12
{14}
10 км пыльный позёмок 6/0
[Ac trans Ci fib]
+23.0 +4.1 29 +23 +26 комфорт 1014.8 1015.2
15 22.05 ЮВ 4
{12}
20 км 8/8 600 м
[Sc Ac trans]
+20.3 +8.0 45 +22 +22 комфорт 1016.0 1016.4 +23.9
18 22.05 ЮВ 3 20 км 8/8 600 м
[Sc Ac trans]
+18.1 +9.4 57 +18 +18 1016.3 1016.6
21 22.05 ЮВ 2 20 км 10/10 600 м
[Sc]
+17.2 +6.3 49 +18 +18 1015.0 1015.4
00 23.05 ЮВ 1 20 км 10/10 570 м
[Sc]
+15.8 +9.1 64 +17 +17 1014.0 1014.4
03 23.05 штиль 0 20 км 3/0
[Ac trans Ci fib]
+14.8 +9.6 71 +15 +17 1013.5 1013.9 +13.5
06 23.05 Ю 2 20 км 4/0
[Ac trans]
+22.3 +9.7 45 +24 +33 комфорт 1012.6 1013.0
09 23.05 З 3 20 км 6/6 600 м
[Cu med, cong]
+26.9 +8.0 30 +27 +33 жарко 1010.6 1011.0
12 23.05 С 3
{12}
10 км гроза без осадков {ливн. осадки} 10/10 300 м
[Cb cap Ac und]
+22.1 +11.6 51 +24 +24 комфорт 1010.3 1010.7
15 23.05 З 3
{10}
20 км {гроза} 8/8 600 м
[Sc Ac trans Ci fib]
+25.5 +6.8 30 +25 +26 комфорт 1009.5 1009.9 +28.6 0.0
18 23.05 С 1 10 км слаб. ливневой дождь {гроза} 10/10 330 м
[Cb cap]
+16.1 +14.0 87 +17 +17 1010.7 1011.1
21 23.05 ЮЗ 2 4000 м дымка {ливн. осадки} 10/10 540 м
[Sc]
+15.7 +14.3 91 +16 +16 1011.2 1011.6
00 24.05 З 1 20 км 9/9 600 м
[Sc Ac und]
+15.3 +13.0 86 +16 +16 1010.8 1011.2
03 24.05 З 3 20 км 10/10 600 м
[Sc Ac und]
+16.3 +14.4 89 +16 +16 1010.6 1011.0 +15.1 2
06 24.05 З 5 20 км 6/0
[Ac und Ci fib]
+21.9 +14.1 61 +25 +29 комфорт 1010.7 1011.1
09 24.05 З 4
{10}
20 км 6/6 600 м
[Cu med, cong]
+26.0 +12.5 43 +28 +33 жарко 1010.1 1010.5
12 24.05 З 4
{12}
20 км 8/8 600 м
[Cu med, cong]
+28.0 +10.1 33 +28 +30 жарко 1009.6 1009.9
15 24.05 СЗ 1
{10}
20 км 4/4 1000 м
[Cu med, cong]
+26.9 +9.0 32 +27 +28 жарко 1009.7 1010.0 +28.3
18 24.05 штиль 0 20 км 1/0
[Ac und]
+19.5 +12.5 64 +21 +21 комфорт 1010.9 1011.3
21 24.05 Ю 1 20 км ясно +17.9 +12.1 69 +19 +19 1011.0 1011.3
00 25.05 СВ 1 20 км ясно +16.0 +12.0 77 +17 +17 1010.9 1011.3
03 25.05 В 2 20 км 3/0
[Ac trans Ci fib]
+19.5 +12.5 64 +21 +23 комфорт 1011.1 1011.5 +15.5
06 25.05 ЮВ 3 20 км 8/0
[Ac trans Ci fib]
+26.7 +9.5 34 +27 +32 жарко 1010.8 1011.2
09 25.05 ЮВ 6-11
{12}
20 км 5/3 1000 м
[Cu hum Ci fib]
+29.5 +8.4 27 +29 +34 жарко 1009.5 1009.9

 

Местоположение метеостанции Комсомольский (Калмыкия, Россия): широта 45.35 долгота 46.03 высота над уровнем моря -2 м.

В архиве по умолчанию представлена погода в Комсомольском за последнюю неделю. Архивные данные за месяц целиком и за предыдущие месяцы, начиная с января 2011 года, Вы можете получить, выбрав интересующий диапазон дат из раскрывающегося списка и нажав кнопку "Ввод!".


*Определитесь, кто Вы:
робот инопланетянин человек

Внимание! Время в таблицах - всемирное. Для получения местного времени необходимо прибавить поправку, которая равна 3 ч.

Смотрите также архив погоды в соседних городах и на ближайших метеорологических станциях:

Погода в Артезиане (Калмыкия, Россия) (70 км)
Погода в Южно-Сухокумске (Дагестан, Россия) (83 км)
Погода в Лагани (Калмыкия, Россия) (103 км)
Погода в Лимане (Астраханская область, Россия) (105 км)
Погода в Яшкуле (Калмыкия, Россия) (106 км)
Погода в Кочубее (Дагестан, Россия) (113 км)
Погода в Утте (Калмыкия, Россия) (113 км)
Погода в Ики-Буруле (Калмыкия, Россия) (120 км)
Погода в Терекли-Мектебе (Дагестан, Россия) (136 км)
Погода в Арзгире (Ставропольский край, Россия) (143 км)

Пояснения к столбцам:

Ветер - указаны скорость ветра в м/с - средняя за 10 мин, порывы в срок и между сроками (в фигурных скобках) и направление, откуда дует ветер: С - северный, СВ - северо-восточный, В - восточный, ЮВ - юго-восточный, Ю - южный, ЮЗ - юго-западный, З - западный, СЗ - северо-западный.
Видимость - горизонтальная дальность видимости в метрах или километрах. При видимости от 1 до 10 км при отсутствии осадков обычно наблюдается дымка, при ухудшении видимости до 1 км и менее - туман. В сухую погоду видимость может ухудшаться дымом, пылью или мглою.
Явления - указаны атмосферные явления, наблюдавшиеся в срок или в последний час перед сроком; фигурными скобками обозначены явления, наблюдавшиеся между сроками (за 1-3 часа до срока); квадратными скобками обозначены град или гололедные отложения с указанием их диаметра в мм.
Облачность - указаны через наклонную черту общая и нижняя облачность в баллах и высота нижней границы облаков в метрах; квадратными скобками обозначены формы облаков: Ci - перистые, Cs - перисто-слоистые, Cc - перисто-кучевые, Ac - высококучевые, As - высокослоистые, Sc - слоисто-кучевые, Ns - слоисто-дождевые, Cu - кучевые, Cb - кучево-дождевые. Подробнее классификацию облаков см. в Атласе облаков (PDF).
T - Температура воздуха - температура, измеренная на высоте 2 м над землей.
Td - Температура точки росы - температура, при понижении до которой содержащийся в воздухе водяной пар достигнет насыщения.
f - Относительная влажность воздуха - влажноcть воздуха, измеренная на высоте 2 м над землей.
Te - Эффективная температура - температура, которую ощущает одетый по сезону человек в тени. Характеристика душности погоды. При расчете учитывается влияние влажности воздуха и скорости ветра на теплоощущения человека.
Tes - Эффективная температура на солнце - температура, которую ощущает человек, с поправкой на солнечный нагрев. Характеристика знойности погоды. Зависит от высоты солнца над горизонтом, облачности и скорости ветра. Ночью, в пасмурную погоду, а также при ветре 12 м/с и более поправка равна нулю.
P - Атмосферное давление - приведенное к уровню моря атмосферное давление.
Po - Атмосферное давление - измеренное на уровне метеостанции атмосферное давление.
Tmin - Минимальная температура - минимум температуры воздуха на высоте 2 м над землей.
Tmax - Максимальная температура - максимум температуры воздуха на высоте 2 м над землей.
R - Количество осадков - Количество выпавших осадков за период времени, мм. При наведении курсора мыши на число - период времени, за который выпало указанное количество осадков.
R24 - Количество осадков - Количество выпавших осадков за 24 часа, мм.
S - Снежный покров - Высота снежного покрова, см. При наведении курсора мыши на число - состояние снежного покрова и степень покрытия местности в баллах.